This demonstration page uses our WeatherBlox Daily Observations layout. Learn more.

Left ArrowRight Arrow

Hourly Observations for July 21, 2018

Temp ( °F °C ) Dew Point ( °F °C ) Humidity (%) Winds ( mph kmh ) Pressure ( in mb ) Visibility ( mi km ) Precip ( " mm )
12:51 am 00:51 Clear 84 28.9 62 16.7 48 48 NE 8 13 29.79 1009 10 16.0934 N/A
1:51 am 01:51 Clear 81 27.2 64 17.8 57 57 E 8 13 29.81 1009 10 16.0934 N/A
2:51 am 02:51 Clear 80 26.7 64 17.8 58 58 WNW 3 6 29.81 1010 10 16.0934 N/A
3:51 am 03:51 Clear 79 26.1 64 17.8 60 60 E 5 7 29.81 1010 10 16.0934 N/A
4:51 am 04:51 Clear 79 26.1 64 17.8 60 60 E 7 11 29.84 1010 10 16.0934 N/A
5:51 am 05:51 Sunny 79 26.1 65 18.3 62 62 SE 7 11 29.85 1011 10 16.0934 N/A
6:51 am 06:51 Sunny 81 27.2 60 15.6 49 49 SSE 8 13 29.86 1011 10 16.0934 N/A
7:51 am 07:51 Sunny 83 28.3 61 16.1 48 48 VRB 3 6 29.87 1011 10 16.0934 N/A
8:51 am 08:51 Sunny 88 31.1 61 16.1 40 40 NW 7 11 29.85 1011 10 16.0934 N/A
9:51 am 09:51 Sunny 92 33.3 61 16.1 36 36 NW 17 28 29.84 1010 10 16.0934 N/A
10:51 am 10:51 Sunny 96 35.6 61 16.1 31 31 W 22 35 29.82 1010 10 16.0934 N/A
11:51 am 11:51 Sunny 97 36.1 60 15.6 29 29 W 17 28 29.81 1010 10 16.0934 N/A
12:51 pm 12:51 Sunny 99 37.2 59 15 27 27 WNW 9 15 29.8 1009 10 16.0934 N/A
1:51 pm 13:51 Sunny 100 37.8 57 13.9 24 24 N 6 9 29.78 1008 10 16.0934 N/A
2:51 pm 14:51 Sunny 103 39.4 53 11.7 19 19 W 9 15 29.75 1007 10 16.0934 N/A
3:51 pm 15:51 Sunny 101 38.3 54 12.2 21 21 W 14 22 29.74 1007 10 16.0934 N/A
4:51 pm 16:51 Sunny 98 36.7 59 15 27 27 W 17 28 29.75 1007 10 16.0934 N/A
5:51 pm 17:51 Sunny 96 35.6 60 15.6 30 30 W 14 22 29.74 1007 10 16.0934 N/A
6:51 pm 18:51 Sunny 93 33.9 59 15 32 32 W 12 19 29.76 1008 10 16.0934 N/A
7:51 pm 19:51 Clear 92 33.3 59 15 33 33 WNW 18 30 29.79 1009 10 16.0934 N/A
8:51 pm 20:51 Clear 90 32.2 58 14.4 34 34 NW 16 26 29.83 1010 10 16.0934 N/A
9:51 pm 21:51 Clear 89 31.7 58 14.4 35 35 NW 17 28 29.83 1010 10 16.0934 N/A
10:51 pm 22:51 Clear 87 30.6 59 15 39 39 WNW 14 22 29.83 1010 10 16.0934 N/A
11:51 pm 23:51 Clear 86 30 60 15.6 42 42 NW 15 24 29.85 1011 10 16.0934 N/A

Powered by AerisWeather